EDT,Max TemperatureF,Mean TemperatureF,Min TemperatureF,Max Dew PointF,MeanDew PointF,Min DewpointF,Max Humidity, Mean Humidity, Min Humidity, Max Sea Level PressureIn, Mean Sea Level PressureIn, Min Sea Level PressureIn, Max VisibilityMiles, Mean VisibilityMiles, Min VisibilityMiles, Max Wind SpeedMPH, Mean Wind SpeedMPH, Max Gust SpeedMPH,PrecipitationIn, CloudCover, Events, WindDirDegrees
2013-7-1,79,74,68,72,69,68,100,88,70,30.04,29.95,29.88,10,9,2,10,2,16,0.30,5,Rain,168
2013-7-2,76,74,71,72,71,69,99,93,83,30.21,30.13,30.04,10,9,1,13,7,17,0.66,5,Rain,168
2013-7-3,81,76,72,74,72,71,99,88,71,30.29,30.24,30.18,10,10,7,9,5,,0.05,4,Rain,163
2013-7-4,83,77,71,74,72,69,99,86,62,30.31,30.27,30.23,10,9,2,14,5,23,0.43,3,Rain,160
2013-7-5,83,77,71,75,72,70,99,89,67,30.31,30.28,30.22,10,9,1,15,4,20,0.64,4,Rain,170
2013-7-6,85,76,68,76,72,68,100,90,57,30.30,30.24,30.17,10,10,3,7,2,20,0.04,4,Rain,163
2013-7-7,86,78,70,76,71,69,99,87,57,30.24,30.19,30.12,10,10,4,15,2,22,0.32,3,Rain,202
2013-7-8,83,76,70,74,72,68,100,87,59,30.24,30.19,30.15,10,10,4,7,1,,0.13,3,Rain,220
2013-7-9,86,79,72,74,72,70,99,83,62,30.22,30.17,30.11,10,10,4,14,3,20,0.00,2,Rain,198
2013-7-10,86,78,71,76,72,70,100,84,58,30.15,30.08,30.00,10,9,1,16,4,31,0.90,4,Rain,194
2013-7-11,76,72,69,76,73,69,100,98,89,30.02,29.98,29.92,10,7,1,14,4,20,1.16,4,Rain,192
2013-7-12,75,72,68,71,69,66,100,91,77,30.07,29.99,29.92,10,9,7,12,3,,0.01,7,Rain,24
2013-7-13,79,74,68,73,70,67,100,92,76,30.18,30.13,30.06,10,8,4,12,3,18,0.06,7,Rain,49
2013-7-14,84,78,71,73,71,68,100,87,61,30.34,30.29,30.18,10,9,2,7,2,,0.12,5,Rain,110
2013-7-15,86,76,67,74,70,67,100,83,53,30.37,30.34,30.30,10,9,0,5,0,,0.00,2,Fog,71
2013-7-16,88,78,68,76,71,68,100,81,51,30.35,30.30,30.25,10,10,0,5,0,,0.00,1,Fog,268
2013-7-17,89,81,73,75,73,71,99,83,55,30.29,30.24,30.17,10,10,5,8,1,,0.00,1,,9
2013-7-18,89,80,70,77,73,70,99,86,57,30.21,30.17,30.11,10,8,1,7,1,,0.51,2,Rain,222
2013-7-19,89,80,72,74,73,71,100,80,55,30.16,30.11,30.04,10,8,3,13,3,,0.00,1,,197
2013-7-20,86,80,74,74,72,71,95,82,61,30.09,30.04,29.98,10,10,10,10,7,,0.00,3,,200
2013-7-21,87,80,72,72,72,69,100,85,61,30.05,30.01,29.96,10,10,5,12,5,17,0.02,4,Rain,207
2013-7-22,83,77,71,73,71,70,100,85,64,30.01,29.96,29.88,10,8,2,10,2,16,0.00,4,,205
2013-7-23,86,79,72,72,70,67,97,76,52,29.90,29.85,29.79,10,10,7,10,5,10,0.00,1,,233
2013-7-24,88,78,68,75,69,64,99,75,44,29.95,29.84,29.79,10,9,5,14,1,17,0.05,1,Rain,243
2013-7-25,78,72,66,69,67,63,100,83,64,30.08,29.98,29.87,10,10,7,9,3,,0.05,2,Rain,16
2013-7-26,82,73,64,70,65,62,98,77,52,30.16,30.11,30.07,10,10,7,8,1,,0.00,2,,165
2013-7-27,79,73,67,72,68,65,100,91,69,30.09,30.04,29.99,10,9,2,9,3,,0.46,3,Rain,158
2013-7-28,84,76,68,72,69,67,100,84,56,30.08,30.00,29.98,10,9,1,8,2,,1.37,5,Rain,210
2013-7-29,81,74,66,70,66,62,100,80,53,30.21,30.13,30.05,10,9,0,9,2,,0.01,1,Fog,4
2013-7-30,82,72,61,71,64,57,99,78,48,30.27,30.22,30.19,10,10,7,7,1,,0.00,0,,55
2013-7-31,80,74,68,74,69,63,100,87,58,30.20,30.13,30.05,10,9,3,12,1,20,0.53,3,Rain,184